Wind_Speed
37 36 37 37 35 34 31 29 26 24 20 13 7 5 1 3 6 9 20 25 24 24 24 21 23 20 20 24 29 28 22 31 22 21 19 13 11 13 13 11 9 10 18 18 24
38 37 38 36 35 36 32 29 25 22 17 12 7 4 1 1 6 7 19 24 21 24 26 23 16 16 12 17 28 31 33 34 31 24 18 14 10 12 12 15 12 15 19 19 20
39 39 39 36 38 35 32 27 25 20 15 11 6 3 0 2 8 12 18 23 22 25 28 21 21 11 25 3 27 20 31 26 24 28 24 19 12 7 11 8 7 18 15 19 17
41 41 38 38 39 34 31 28 23 19 13 8 5 3 0 3 11 15 19 22 27 34 30 25 15 20 27 32 18 24 26 23 19 20 22 20 14 14 16 18 14 13 15 19 17
42 41 40 38 37 33 31 28 23 18 12 7 4 3 1 5 13 17 22 27 34 39 31 29 15 27 24 21 29 29 36 32 25 22 20 20 15 16 14 16 14 14 15 19 19
43 41 41 39 36 32 30 28 23 17 10 6 3 4 3 6 15 20 24 30 40 41 34 30 26 24 19 28 40 30 27 29 32 29 30 21 18 17 18 19 15 14 14 16 15
44 43 41 38 36 33 30 26 22 15 8 6 1 3 2 4 14 22 25 29 42 47 39 38 35 26 12 14 23 33 20 29 22 21 24 19 20 20 21 16 16 16 16 15 12
45 43 40 37 36 32 27 23 20 13 7 5 1 3 4 7 16 19 25 29 35 49 42 42 33 26 21 23 29 30 23 26 19 18 17 20 21 22 22 22 20 18 15 14 13
45 42 39 37 34 30 25 21 18 12 7 3 3 4 6 11 14 19 23 27 31 39 51 43 39 32 25 24 34 29 23 21 20 19 24 20 20 22 19 19 22 19 18 18 17
43 40 38 35 32 28 23 20 15 10 6 3 4 5 7 14 14 20 23 25 26 30 36 42 43 33 39 43 41 33 29 27 20 22 19 24 31 25 27 25 22 19 21 19 18
42 39 36 33 30 25 22 18 13 9 6 4 5 7 9 11 14 19 21 24 25 25 27 35 41 48 29 35 32 25 25 29 26 29 29 36 16 20 27 29 27 25 23 21 19
39 36 33 30 27 23 20 17 13 9 4 4 6 8 11 12 11 12 17 21 23 25 25 29 34 45 37 35 38 36 29 28 29 26 30 31 25 27 29 29 24 23 25 22 22
38 33 29 27 24 21 17 15 12 8 6 6 8 9 12 13 13 12 13 16 20 23 26 28 31 33 30 29 30 28 24 35 38 33 34 35 29 26 29 26 27 26 23 24 26
35 32 29 25 22 19 16 12 11 9 7 8 10 11 13 15 13 11 12 14 15 17 20 24 26 29 27 25 29 29 31 30 31 35 35 31 32 32 27 17 19 20 17 23 25
32 30 27 23 20 17 15 12 10 10 8 10 11 13 16 17 15 15 14 13 14 16 17 18 18 18 20 24 20 19 18 22 23 24 23 20 24 18 23 21 19 22 16 11 16
28 28 25 22 19 17 14 12 11 11 11 12 13 16 18 19 19 17 16 15 15 15 16 18 19 19 20 19 19 19 19 20 22 22 16 17 19 21 20 18 20 17 21 21 31
26 26 24 20 19 17 15 14 13 12 13 14 15 17 19 20 20 21 19 17 17 17 18 19 19 20 20 20 20 22 23 23 25 25 24 19 23 25 20 12 10 12 15 24 27
25 24 23 20 18 18 16 16 14 14 14 16 16 17 20 22 22 21 20 18 19 20 18 17 18 20 19 20 20 21 19 21 23 24 17 19 18 18 20 13 12 18 17 26 26
24 22 21 20 19 18 17 15 18 18 16 16 17 19 21 22 22 24 23 22 22 22 20 21 20 20 19 19 18 18 20 20 19 24 19 19 17 17 15 23 7 10 13 15 22
23 22 20 19 19 18 15 19 20 16 13 14 17 21 23 25 25 24 26 24 22 22 23 22 21 22 20 20 20 21 20 19 17 21 17 15 22 23 21 16 6 13 9 10 10
21 21 20 19 19 18 14 15 23 18 16 15 18 21 25 27 28 29 27 26 26 24 23 23 21 20 22 20 22 18 17 16 19 19 16 20 27 34 28 24 14 44 20 36 45
20 20 19 18 19 18 18 18 19 21 21 20 20 23 23 28 29 28 28 24 25 26 24 22 20 24 21 20 17 16 15 15 17 20 16 19 29 33 38 36 31 35 29 20 46
18 20 16 19 18 18 18 19 19 21 19 22 21 23 24 28 26 25 25 24 27 25 25 24 27 24 19 21 19 17 15 15 17 18 14 14 22 36 41 33 30 41 41 43 49
16 16 18 18 15 16 17 18 20 22 24 21 22 23 23 26 29 28 25 28 29 27 29 27 25 25 23 23 17 20 15 17 17 16 12 17 28 33 33 33 32 25 45 46 43
11 15 12 12 13 17 17 18 18 20 21 23 23 23 25 28 30 26 28 26 31 29 30 29 28 29 28 24 20 21 21 20 20 21 18 21 29 28 31 33 26 28 34 33 37
10 11 11 11 12 12 13 15 16 18 19 28 25 23 27 22 22 24 27 27 24 30 32 30 32 29 29 29 24 24 23 23 23 23 23 21 31 33 26 26 26 24 36 31 21
8 9 10 8 10 10 8 11 15 14 20 22 23 27 26 25 24 28 30 33 32 32 36 33 35 32 33 31 27 26 27 23 24 24 28 28 31 42 38 37 37 32 33 30 20
Wind_Direction
337 339 339 339 342 342 341 342 339 339 340 337 332 314 225 198 191 201 185 191 184 178 179 184 189 195 196 192 213 218 202 212 242 274 262 242 239 239 267 252 244 269 303 315 319
333 336 336 338 339 339 338 337 338 337 339 333 331 312 295 182 151 166 169 176 173 177 174 170 171 180 166 206 214 222 233 244 251 253 239 223 237 247 246 253 262 278 296 316 316
331 333 336 336 337 338 337 336 335 336 340 329 332 314 326 163 146 151 150 162 172 163 166 160 156 154 167 236 218 219 235 239 241 237 236 237 248 232 230 222 265 302 307 314 316
328 329 332 332 334 334 337 335 335 335 337 327 328 290 186 160 145 164 159 160 163 155 153 154 169 174 181 200 176 223 206 204 214 228 237 251 268 243 242 271 290 290 303 324 329
324 327 329 329 332 332 333 333 331 330 330 325 318 276 182 165 147 157 162 158 165 152 157 149 144 149 173 196 236 245 242 226 238 258 255 262 259 243 258 265 292 284 308 331 339
323 323 326 327 329 330 331 330 327 323 320 323 314 263 181 170 149 157 164 164 167 155 163 160 160 170 194 234 232 241 258 242 258 261 254 250 247 240 253 261 278 287 296 324 336
318 319 321 323 325 326 327 330 329 322 313 307 286 225 186 167 161 164 168 176 168 160 162 165 180 166 191 207 207 223 245 234 251 246 244 250 256 249 261 263 281 283 278 303 319
315 317 318 320 322 326 327 326 326 320 310 296 174 200 175 172 162 169 173 180 179 170 160 173 181 185 189 182 200 205 227 232 229 235 250 263 263 262 263 266 281 286 277 281 289
311 312 313 317 318 322 325 324 320 315 304 287 164 197 175 173 166 172 180 180 189 185 177 175 189 205 221 200 198 223 233 231 236 241 249 250 258 254 266 266 285 280 279 277 280
308 310 310 314 317 319 319 319 316 308 300 265 172 195 187 174 171 174 184 186 187 194 195 200 202 221 238 236 235 231 236 231 231 244 249 263 245 258 270 274 271 273 278 279 283
304 307 310 311 314 315 316 314 308 298 294 247 190 183 183 179 180 181 190 189 195 192 202 201 199 223 238 233 228 231 234 232 234 240 238 246 271 260 270 276 275 275 289 283 288
303 306 308 309 311 312 312 308 300 289 262 236 199 195 180 173 182 181 187 194 194 197 199 214 217 231 229 231 230 245 251 254 238 237 249 254 268 267 265 266 268 280 287 286 286
303 306 307 308 308 309 308 306 292 275 251 219 211 209 188 180 182 182 184 192 200 200 199 214 217 228 232 233 236 244 243 238 245 236 235 245 247 257 268 269 278 282 283 285 286
300 303 303 304 303 304 304 299 288 267 238 218 212 206 200 186 184 180 191 196 189 191 204 211 208 227 230 235 241 236 240 242 247 250 246 248 258 270 278 279 286 284 294 294 278
297 299 298 298 299 299 297 290 284 264 234 218 216 210 203 196 189 193 196 199 204 197 199 204 204 206 216 229 238 243 247 249 250 252 255 263 256 256 256 280 268 270 298 324 321
293 293 293 293 290 289 286 281 272 254 236 216 217 215 206 203 197 195 201 210 216 215 224 224 224 222 223 222 228 235 239 245 252 251 251 246 246 236 253 256 276 274 284 266 288
286 287 286 286 283 278 276 270 267 260 250 232 216 217 214 206 206 207 200 209 215 219 222 225 228 230 233 239 240 244 249 254 255 253 247 243 247 246 245 246 292 302 304 293 301
279 280 279 280 279 272 269 268 262 251 242 235 227 219 215 213 207 205 209 213 220 224 228 231 240 239 239 239 242 244 249 254 253 257 244 257 244 235 228 234 317 291 292 276 303
275 277 274 275 274 271 267 261 256 249 242 227 225 218 218 216 220 212 204 214 225 231 230 234 234 232 236 242 243 249 251 253 256 253 246 224 206 213 217 223 285 339 265 277 294
274 274 270 271 270 269 264 264 259 250 243 238 230 221 221 218 212 218 224 220 228 232 236 235 237 235 233 235 244 244 244 246 247 245 237 215 192 195 182 194 272 296 212 352 64
272 270 270 267 267 264 252 241 267 273 270 252 239 230 224 222 228 221 221 230 237 238 242 241 244 245 246 241 238 240 240 237 238 236 230 192 183 161 171 196 151 200 152 193 229
271 268 264 268 264 261 252 245 247 257 255 248 236 241 226 229 224 233 230 231 242 246 248 248 250 250 253 255 245 244 248 241 236 232 219 167 186 187 187 192 176 197 237 234 235
270 269 270 263 262 259 256 251 249 249 260 254 246 247 240 231 240 227 235 232 238 243 249 249 248 252 251 261 265 255 243 242 242 236 208 192 193 198 198 226 233 228 240 242 273
268 263 257 260 260 257 257 255 254 251 249 245 241 240 236 239 245 245 233 234 244 243 248 251 255 259 258 253 255 264 256 247 245 242 207 225 204 206 220 224 231 231 240 257 272
266 257 269 260 257 257 259 252 249 249 250 250 251 239 239 238 242 245 250 238 245 245 247 250 253 254 256 258 254 252 255 253 249 248 216 215 215 198 202 204 211 235 250 271 271
264 269 263 264 260 262 255 256 259 255 234 247 248 252 265 255 258 261 255 260 247 251 255 252 252 253 258 255 252 253 254 253 252 246 239 220 215 201 204 220 223 251 244 253 288
263 262 266 267 269 272 273 255 248 248 247 254 250 249 253 256 252 246 245 247 244 237 248 248 250 248 251 255 257 256 253 255 258 247 242 231 218 203 205 230 221 233 250 260 262
Height
10986 10982 10979 10975 10971 10967 10962 10959 10956 10952 10950 10948 10947 10946 10947 10948 10949 10950 10953 10959 10965 10974 10976 10981 10986 10991 10995 10999 10995 10992 10994 10999 11001 11001 11004 11005 11008 11009 11011 11013 11013 11011 11009 11009 11006
10982 10980 10976 10972 10967 10963 10959 10955 10952 10950 10948 10945 10945 10944 10944 10946 10947 10948 10951 10957 10966 10967 10973 10978 10984 10986 10990 10995 10993 10991 10994 10993 10996 10999 11002 11004 11006 11008 11009 11008 11009 11009 11007 11006 11004
10979 10976 10973 10968 10964 10960 10956 10952 10949 10947 10946 10943 10942 10942 10943 10944 10945 10947 10950 10956 10960 10965 10969 10974 10979 10981 10983 10985 10983 10985 10986 10993 10992 10996 10999 11004 11006 11007 11008 11007 11008 11005 11006 11004 11001
10975 10972 10969 10965 10961 10956 10953 10950 10947 10944 10943 10941 10940 10940 10941 10943 10946 10946 10950 10954 10956 10963 10967 10971 10976 10974 10978 10979 10980 10984 10984 10989 10989 10995 11000 11004 11006 11006 11007 11003 11005 11004 11003 11001 10999
10971 10967 10964 10961 10957 10953 10949 10946 10944 10942 10941 10940 10939 10938 10940 10941 10944 10945 10949 10952 10953 10959 10963 10970 10972 10973 10978 10979 10977 10979 10981 10984 10987 10993 10998 11000 11003 11005 11006 11002 11003 11002 11000 10998 10996
10966 10963 10960 10956 10953 10949 10946 10943 10941 10939 10938 10937 10937 10936 10938 10940 10943 10943 10946 10949 10951 10957 10962 10970 10974 10976 10977 10976 10977 10975 10978 10981 10984 10988 10993 10995 10998 11001 11002 11001 11001 10999 10998 10996 10995
10960 10958 10955 10951 10948 10945 10942 10939 10937 10936 10935 10935 10935 10934 10936 10939 10940 10941 10944 10946 10950 10955 10963 10957 10971 10973 10972 10972 10972 10979 10979 10980 10983 10986 10989 10993 10996 10999 10998 10998 10998 10998 10996 10996 10994
10954 10952 10949 10946 10943 10941 10938 10935 10934 10933 10932 10932 10933 10933 10935 10937 10939 10940 10941 10944 10948 10954 10959 10962 10965 10965 10962 10966 10970 10974 10976 10980 10981 10984 10990 10992 10994 10996 10997 10996 10995 10995 10994 10994 10992
10948 10947 10944 10941 10938 10936 10934 10932 10931 10930 10929 10930 10931 10931 10933 10934 10937 10938 10938 10943 10948 10953 10959 10960 10964 10965 10964 10968 10970 10970 10972 10980 10980 10983 10981 10983 10984 10989 10991 10994 10994 10993 10992 10992 10992
10942 10941 10938 10936 10933 10932 10930 10928 10928 10927 10927 10927 10929 10929 10931 10932 10935 10936 10937 10939 10945 10951 10957 10960 10965 10965 10960 10963 10966 10968 10971 10977 10979 10973 10977 10976 10977 10980 10985 10989 10990 10989 10990 10990 10989
10936 10935 10933 10930 10928 10927 10926 10924 10925 10925 10925 10926 10927 10928 10928 10930 10932 10934 10936 10938 10941 10946 10948 10950 10953 10944 10951 10955 10958 10964 10967 10970 10975 10968 10969 10968 10973 10975 10983 10985 10986 10985 10985 10985 10985
10930 10929 10927 10925 10923 10922 10921 10920 10921 10922 10922 10924 10925 10926 10928 10928 10931 10933 10935 10936 10939 10941 10943 10944 10948 10941 10952 10952 10955 10960 10964 10965 10968 10968 10963 10963 10967 10976 10979 10979 10978 10978 10979 10982 10982
10923 10922 10922 10920 10919 10918 10917 10917 10916 10918 10919 10921 10922 10924 10926 10928 10929 10931 10933 10934 10937 10939 10941 10941 10943 10945 10947 10949 10950 10955 10956 10950 10959 10963 10964 10965 10973 10971 10970 10972 10973 10971 10969 10969 10972
10917 10916 10916 10915 10914 10913 10913 10913 10912 10914 10915 10917 10919 10921 10923 10925 10928 10930 10931 10932 10934 10936 10937 10938 10940 10940 10944 10945 10944 10948 10947 10951 10952 10954 10958 10965 10966 10962 10963 10964 10963 10962 10961 10961 10962
10911 10910 10909 10909 10909 10909 10909 10909 10909 10910 10911 10913 10915 10918 10920 10923 10926 10927 10928 10929 10932 10934 10935 10936 10937 10939 10941 10942 10944 10946 10946 10944 10945 10948 10954 10959 10956 10953 10953 10957 10956 10955 10954 10955 10955
10905 10903 10904 10904 10904 10904 10904 10904 10904 10905 10906 10908 10910 10912 10916 10919 10921 10923 10925 10926 10928 10930 10932 10934 10935 10936 10938 10938 10940 10941 10941 10941 10941 10945 10951 10950 10951 10951 10950 10950 10950 10950 10949 10949 10949
10899 10898 10897 10898 10899 10898 10899 10899 10900 10902 10903 10902 10904 10907 10910 10913 10917 10919 10920 10922 10924 10925 10928 10928 10930 10932 10933 10933 10935 10936 10937 10938 10937 10940 10942 10946 10944 10944 10946 10945 10944 10944 10944 10942 10942
10892 10892 10892 10893 10893 10893 10894 10895 10896 10896 10898 10899 10899 10902 10905 10908 10911 10914 10916 10918 10919 10921 10923 10925 10926 10927 10929 10928 10930 10931 10934 10933 10933 10931 10938 10935 10937 10938 10939 10940 10942 10941 10940 10939 10939
10886 10886 10887 10888 10888 10888 10889 10889 10888 10890 10891 10892 10895 10896 10900 10903 10907 10908 10910 10912 10914 10917 10920 10919 10919 10922 10922 10922 10924 10925 10925 10926 10927 10924 10929 10933 10933 10933 10932 10934 10936 10933 10939 10947 10945
10879 10880 10881 10882 10882 10883 10884 10882 10883 10885 10888 10888 10889 10891 10892 10895 10898 10901 10903 10906 10908 10910 10912 10914 10916 10916 10916 10917 10918 10919 10920 10921 10921 10920 10924 10928 10926 10926 10929 10929 10926 10928 10934 10946 10926
10874 10874 10876 10876 10876 10878 10881 10880 10875 10879 10881 10882 10886 10886 10889 10890 10894 10895 10896 10900 10903 10906 10906 10907 10909 10910 10910 10913 10912 10915 10915 10916 10916 10915 10916 10919 10923 10924 10921 10916 10918 10914 10928 10943 10925
10868 10868 10870 10870 10871 10872 10874 10876 10877 10876 10876 10880 10880 10879 10883 10884 10886 10891 10893 10896 10898 10899 10901 10902 10904 10902 10906 10906 10908 10910 10910 10911 10911 10910 10912 10918 10920 10917 10914 10912 10914 10915 10912 10913 10915
10863 10862 10865 10864 10865 10866 10868 10869 10871 10871 10870 10872 10874 10875 10875 10877 10879 10881 10891 10889 10890 10894 10894 10896 10895 10897 10902 10900 10902 10904 10904 10905 10905 10905 10908 10912 10917 10916 10917 10915 10915 10914 10915 10908 10904
10857 10857 10857 10858 10860 10861 10863 10863 10863 10864 10863 10865 10867 10868 10871 10874 10874 10876 10880 10881 10883 10887 10888 10890 10891 10892 10895 10895 10899 10898 10900 10901 10900 10898 10905 10905 10905 10912 10915 10918 10920 10915 10913 10910 10907
10853 10852 10854 10855 10856 10855 10856 10857 10858 10857 10858 10858 10861 10862 10863 10865 10867 10871 10873 10880 10877 10881 10882 10884 10885 10886 10887 10889 10892 10893 10893 10894 10895 10894 10895 10899 10900 10907 10907 10906 10909 10907 10906 10906 10903
10848 10849 10850 10850 10851 10852 10852 10852 10853 10852 10854 10853 10855 10858 10861 10862 10867 10870 10869 10868 10873 10873 10874 10877 10876 10879 10879 10881 10886 10888 10889 10888 10889 10890 10889 10893 10895 10903 10906 10902 10899 10900 10902 10903 10900
10845 10845 10846 10847 10846 10848 10849 10848 10848 10850 10849 10848 10851 10851 10851 10859 10860 10860 10860 10859 10861 10865 10864 10869 10869 10873 10872 10873 10877 10881 10881 10884 10885 10885 10883 10884 10888 10892 10896 10896 10897 10903 10900 10897 10894